GFSMW_2pvu_pres_096.txt.gz
Presure
244 144 155 134 144 148 152 144 158 175 167 151 167 131 133 164 197 152 149 178 145 155 193 126 124 106 134 149 107 116 144 135 136 140 130 135 132 137 144 165 111 128 189
127 132 236 107 145 104 212 129 154 143 160 215 150 151 161 138 213 148 204 161 159 199 79 178 125 149 133 142 110 124 133 141 121 134 131 141 137 177 135 160 154 176 192
141 145 152 162 152 147 141 152 199 201 183 147 163 142 145 147 178 213 247 157 137 116 164 173 152 120 134 134 128 171 124 134 136 135 120 140 144 131 149 151 168 174 160
165 244 211 157 155 150 151 252 137 150 167 155 145 142 123 158 147 194 133 147 170 147 169 110 111 133 128 136 127 127 133 142 129 135 140 137 144 149 158 142 175 150 185
148 146 145 146 92 145 147 135 163 146 94 143 144 136 160 146 151 158 175 173 164 147 164 157 154 170 125 144 163 137 134 133 128 141 136 143 188 159 185 150 148 145 163
145 135 156 150 148 151 155 127 201 152 151 153 150 217 225 212 207 190 136 142 134 158 204 179 175 158 145 148 165 136 146 139 142 140 139 141 150 173 162 202 179 167 170
140 151 140 151 153 157 244 239 310 229 186 150 185 143 192 225 208 197 178 214 144 163 179 139 159 176 221 163 170 153 150 135 135 142 141 143 161 156 185 185 191 179 172
167 170 257 145 290 315 193 317 259 284 153 286 200 158 207 152 177 242 143 173 167 213 154 212 168 210 175 166 167 144 131 140 149 140 132 169 164 187 177 184 198 174 172
181 157 156 157 158 159 273 283 282 291 288 280 159 189 218 154 226 229 238 230 252 166 169 146 151 159 149 188 156 156 168 142 135 140 163 166 186 191 180 177 199 185 201
296 305 328 325 237 180 172 206 162 228 171 154 152 187 149 180 171 214 151 186 239 216 176 204 159 216 142 188 173 139 137 162 159 144 180 204 201 160 187 165 189 187 202
284 272 285 288 292 301 279 183 198 195 228 168 186 185 157 146 174 151 235 218 170 153 208 154 162 162 149 180 150 152 144 150 160 191 184 171 192 186 185 199 190 191 205
262 261 281 263 261 276 305 306 290 199 182 190 184 175 216 246 230 166 266 222 243 217 214 179 203 166 152 175 159 160 192 159 181 189 180 165 181 192 185 182 160 183 184
266 261 259 258 266 264 273 260 277 257 252 222 203 202 186 179 186 193 239 196 211 208 236 207 215 187 203 207 197 212 204 185 186 198 191 182 181 184 179 163 150 172 189
260 244 237 261 262 175 268 255 226 265 259 251 253 255 233 193 223 213 179 176 150 158 152 221 126 195 210 172 185 183 194 180 191 193 176 190 184 188 194 187 198 194 198
261 227 268 233 243 249 270 273 206 251 242 176 237 246 248 244 247 235 233 237 202 236 197 229 200 201 198 196 194 211 198 203 222 223 219 194 194 173 203 172 210 200 203
254 266 247 242 262 263 272 291 263 252 222 241 230 204 224 236 234 203 240 226 219 217 238 194 217 187 182 217 200 181 204 201 204 200 202 213 210 204 199 189 216 205 203
180 219 266 230 242 238 245 263 273 260 258 249 242 242 240 227 243 237 245 243 237 241 239 225 225 221 224 197 207 183 193 193 208 202 199 193 209 200 198 203 192 193 202
157 160 155 139 207 237 221 230 266 251 223 256 241 236 238 218 242 239 223 200 228 224 231 240 214 194 220 224 221 217 212 204 208 215 205 211 208 213 203 206 201 224 217
146 202 155 160 163 145 99 173 179 193 160 220 203 234 166 167 234 236 208 238 213 231 190 195 225 227 216 219 228 192 222 218 220 219 210 212 212 228 201 201 192 210 215
155 168 164 153 138 118 112 199 138 160 174 169 181 218 171 198 262 190 195 165 224 234 222 230 231 198 198 205 230 227 223 222 218 233 236 185 235 206 212 199 193 208 202
187 136 152 158 149 147 135 199 142 160 162 139 143 217 200 184 182 209 236 237 241 212 218 224 232 231 227 227 225 223 227 216 217 228 233 229 206 197 209 227 239 203 207
149 151 148 148 142 184 153 186 217 191 223 178 180 210 225 178 236 241 208 260 275 235 249 250 252 246 241 237 227 248 237 238 239 234 229 214 246 237 238 238 238 238 231
221 213 220 197 198 142 203 228 155 227 156 192 243 190 243 247 263 272 290 299 331 223 223 223 228 226 229 240 275 274 281 221 243 251 251 250 237 242 229 235 233 234 236
208 157 187 201 134 135 143 190 149 158 161 248 248 242 249 253 270 290 437 467 457 444 436 429 425 309 428 456 278 332 264 253 240 248 229 248 243 219 253 243 236 234 221
212 167 208 192 205 187 180 180 197 192 162 253 249 255 260 277 352 584 554 521 485 456 434 416 404 397 407 423 432 440 456 461 439 277 274 251 307 258 263 263 260 250 241
154 211 219 166 197 218 235 152 169 239 230 250 257 266 269 319 466 462 466 541 512 477 444 418 398 383 378 396 396 396 421 460 447 429 412 358 266 269 277 304 246 250 267

GFSMW_2pvu_pres_099.txt.gz
Presure
127 140 129 129 131 136 139 153 135 157 112 159 202 142 135 194 159 143 153 142 102 147 135 137 131 143 139 195 151 144 126 111 124 129 105 126 142 141 133 142 133 125 139
156 135 136 123 124 95 140 140 197 172 135 179 153 142 183 154 138 138 134 150 162 158 196 129 142 155 153 79 138 172 124 172 159 166 123 158 132 120 134 126 134 126 135
133 133 129 130 178 116 152 152 153 142 148 230 149 146 185 173 155 174 142 157 151 133 173 139 242 183 127 135 148 176 163 166 168 168 130 119 151 132 135 186 122 134 129
144 138 156 140 136 140 139 139 139 149 260 169 135 146 248 164 134 148 174 176 145 151 150 124 126 146 209 150 155 145 161 144 148 163 149 127 155 169 125 132 202 126 131
146 154 128 131 140 265 159 149 143 155 234 252 246 142 253 208 160 180 133 213 115 104 134 182 143 150 185 150 165 197 156 155 153 168 139 133 158 163 131 126 132 124 151
148 136 140 142 141 140 142 145 275 208 95 139 124 127 142 150 164 143 150 166 126 159 157 142 134 193 141 222 195 174 213 191 172 168 151 162 152 133 129 192 127 136 144
142 139 140 146 148 150 100 147 137 148 210 120 136 141 267 204 152 196 148 144 148 166 202 152 152 140 185 192 221 233 142 162 155 139 184 150 179 154 161 132 148 160 141
155 149 151 154 155 146 136 135 131 141 168 152 158 202 244 185 271 148 282 263 148 189 155 169 197 152 145 140 191 203 129 158 167 133 144 140 137 135 145 151 143 145 137
188 264 158 136 135 149 161 326 177 165 176 154 290 270 164 276 285 237 149 141 142 182 205 197 152 212 201 224 176 206 181 208 163 155 144 170 186 215 164 158 206 162 188
170 228 167 164 159 158 155 152 152 184 213 150 152 268 289 204 224 249 210 225 225 191 172 180 150 252 156 153 200 200 164 151 172 160 151 155 144 185 192 174 153 150 197
296 298 308 308 312 273 172 172 237 245 163 260 303 284 198 277 274 276 266 174 199 218 196 179 187 206 209 229 204 223 196 222 217 209 206 170 154 191 167 202 174 175 197
290 294 294 285 302 315 304 243 244 253 179 185 243 269 264 268 258 261 268 252 231 211 212 205 193 214 221 230 219 210 189 214 216 154 219 166 207 171 161 171 189 172 167
264 271 277 283 273 286 271 284 280 231 219 248 253 252 253 264 275 191 170 217 230 170 220 241 234 205 169 237 226 210 213 201 193 199 207 212 198 186 204 197 180 173 204
269 245 238 124 216 284 248 263 266 267 262 254 204 181 239 236 240 231 233 238 224 226 239 229 189 188 200 230 205 195 173 188 197 187 193 205 191 194 201 166 190 220 200
164 262 252 259 265 277 181 265 263 258 269 258 237 249 245 239 246 253 225 218 226 219 237 210 216 200 209 219 209 216 196 187 202 181 188 203 202 213 217 208 198 189 177
275 224 261 262 280 249 247 251 127 296 271 259 246 266 243 248 263 234 245 244 233 227 234 213 215 226 252 242 239 257 223 227 182 223 206 206 204 224 179 203 171 184 171
141 154 196 228 264 267 250 225 166 265 266 260 270 256 247 250 242 224 247 238 226 234 220 211 223 225 226 212 219 217 228 236 217 207 205 203 204 211 204 203 204 209 206
152 166 197 188 157 154 161 152 184 209 214 226 270 260 236 256 234 252 244 237 220 224 242 240 226 222 211 223 234 222 198 218 221 223 222 225 224 219 198 228 212 203 203
160 140 161 159 148 166 152 163 150 176 168 160 149 181 180 158 132 153 161 196 194 192 235 162 213 212 171 202 238 238 233 229 228 226 185 199 212 215 215 203 213 177 184
207 199 131 142 127 146 142 142 141 148 145 142 184 176 142 175 155 113 172 190 218 248 247 241 217 220 186 192 228 228 230 220 202 212 235 229 229 231 218 215 214 215 213
197 199 169 183 204 224 184 134 125 134 180 127 165 184 196 175 124 163 161 215 205 194 214 230 227 223 233 235 225 203 222 239 233 227 228 217 226 220 210 227 241 236 236
208 169 223 209 203 176 209 202 144 183 183 226 227 177 155 170 178 160 176 164 243 244 125 208 242 231 238 219 229 237 246 227 224 231 242 237 245 238 234 228 229 226 226
227 221 216 225 223 205 185 176 171 236 229 180 182 237 245 243 182 163 173 257 259 257 275 297 319 386 379 381 376 275 275 256 272 241 248 243 240 238 258 245 214 246 232
224 236 207 136 182 223 196 240 187 182 227 191 203 246 169 170 162 174 248 250 261 278 309 493 488 479 469 467 479 473 462 453 449 270 252 272 277 272 264 243 244 241 225
225 223 228 206 205 180 224 227 239 235 212 153 193 201 192 259 247 249 241 271 294 447 462 454 452 458 462 461 491 462 443 431 423 426 428 433 378 248 248 256 275 245 243
212 214 200 222 228 199 126 189 172 213 252 248 190 244 163 253 242 243 264 299 436 461 475 470 479 465 469 518 477 446 428 413 402 403 406 431 456 477 442 261 337 396 250

GFSMW_2pvu_pres_105.txt.gz
Presure
163 86 115 148 134 102 121 135 141 134 122 145 139 160 147 122 140 134 140 131 133 134 144 164 130 150 150 133 147 192 150 132 95 164 107 173 123 149 136 191 202 181 186
148 133 138 143 128 118 136 145 130 143 95 132 151 126 128 137 134 106 153 179 140 148 144 133 187 147 148 142 129 179 118 134 148 141 150 177 143 179 143 145 151 149 136
125 335 289 493 149 265 129 131 169 148 157 138 136 134 165 123 142 124 130 116 143 175 145 139 167 135 131 173 130 153 136 148 142 145 125 120 146 140 128 130 156 183 179
217 431 458 127 159 186 176 139 370 145 134 139 146 134 139 143 121 143 119 141 144 133 144 175 171 140 149 130 186 150 193 134 185 150 132 131 189 150 133 126 146 108 203
142 411 313 139 466 150 142 145 131 142 141 144 148 146 141 130 119 123 128 152 152 150 141 142 148 152 160 139 159 128 155 142 144 132 159 160 140 200 149 185 169 136 145
380 136 144 392 145 144 122 132 134 146 151 141 142 134 138 139 151 153 179 145 135 136 173 162 142 121 141 179 162 148 139 123 176 126 143 146 123 139 124 139 133 119 154
140 129 133 141 133 134 138 147 144 145 145 151 141 130 139 153 143 151 204 186 142 140 137 136 138 160 137 132 134 196 192 131 215 120 147 129 139 133 119 130 121 126 148
133 138 158 154 147 151 159 161 160 150 152 157 157 147 138 159 118 136 136 136 147 166 131 150 152 140 132 125 125 132 142 147 244 180 193 219 160 135 126 113 140 166 116
153 281 155 153 329 170 165 165 151 148 145 148 269 145 143 362 166 165 141 144 140 134 134 134 135 136 137 145 138 136 243 217 191 179 207 184 124 158 153 122 140 183 174
242 163 161 158 155 152 150 149 151 152 350 151 150 150 150 141 142 142 143 145 141 267 142 251 232 228 230 205 212 279 145 247 251 205 224 235 233 203 213 248 184 140 206
321 340 312 245 207 162 274 153 151 150 150 148 148 148 149 150 151 288 308 244 244 270 283 285 167 145 290 238 145 258 253 242 229 238 229 217 230 164 247 223 189 212 192
291 298 307 311 279 273 291 290 166 162 168 310 218 327 323 324 326 325 323 316 318 307 282 274 272 277 270 262 255 252 249 239 203 248 279 252 246 183 222 210 194 209 201
269 258 285 301 303 300 275 258 280 289 228 270 284 288 292 284 292 295 295 292 290 287 279 277 279 286 282 279 262 238 282 253 268 253 166 165 232 226 199 184 227 215 206
141 231 164 272 206 284 237 294 266 249 247 251 280 279 190 280 256 280 222 165 171 219 200 265 265 272 274 267 260 252 250 253 255 250 247 241 208 215 215 200 203 210 189
145 156 248 227 135 219 216 264 238 284 288 276 237 275 238 244 252 264 257 234 259 262 259 267 266 267 265 268 245 249 208 198 242 251 241 230 205 211 217 202 214 207 222
221 110 113 253 272 216 241 112 131 126 266 137 179 260 266 271 260 227 228 254 253 273 216 248 246 244 259 258 242 185 240 254 194 247 244 236 241 250 228 204 215 197 198
172 193 165 170 174 215 160 217 220 210 201 249 262 229 133 150 229 148 242 153 153 260 116 153 153 252 255 260 252 254 257 198 218 203 237 236 156 234 230 241 199 199 209
201 208 177 181 179 180 174 169 187 163 172 171 181 162 152 157 154 141 156 148 149 171 196 138 154 223 203 148 261 257 189 165 201 201 151 157 169 206 244 198 231 225 224
206 204 207 222 224 215 223 228 227 213 208 169 182 174 198 168 170 188 193 148 221 140 202 229 216 143 175 225 214 142 155 196 162 161 145 183 207 231 188 199 221 221 237
236 238 239 238 196 197 209 209 214 222 215 225 222 205 221 219 219 217 218 221 194 204 218 220 193 194 166 248 216 201 179 228 169 162 208 204 203 257 229 238 243 223 225
238 240 241 237 236 236 235 234 232 228 225 226 226 228 214 225 224 190 212 221 213 207 210 217 165 168 196 231 221 222 172 134 268 239 235 245 248 225 249 255 252 229 248
237 236 230 229 233 234 241 237 237 237 246 235 238 223 238 225 237 214 200 214 209 170 155 196 189 186 255 185 191 207 229 224 226 270 252 234 237 235 240 241 232 252 227
222 224 197 230 221 218 234 232 234 236 237 236 226 229 234 232 195 236 235 220 240 190 251 205 179 188 187 261 244 268 287 288 281 275 267 283 252 291 249 247 296 276 265
146 212 216 223 223 225 226 230 223 221 220 227 214 215 213 205 206 223 217 235 251 219 251 170 211 195 198 264 278 283 277 281 282 275 283 284 303 348 454 531 513 503 490
241 238 225 227 231 209 232 228 226 228 230 219 221 218 232 170 177 173 224 211 181 212 205 189 234 256 266 279 277 283 268 264 280 307 422 530 524 524 514 508 499 486 472
250 248 245 239 238 238 237 238 239 209 226 241 237 211 180 178 159 245 247 249 240 255 264 234 266 274 276 287 263 265 285 317 467 518 510 505 495 482 475 470 467 464 455

GFSMW_2pvu_pres_108.txt.gz
Presure
286 292 321 117 121 123 131 117 139 120 124 158 160 137 147 131 131 139 154 145 137 150 135 135 157 145 125 84 132 201 135 154 156 167 140 86 206 128 167 145 146 147 143
336 299 208 239 115 107 130 136 135 140 144 147 80 125 135 130 140 135 144 153 145 155 144 139 128 140 126 121 157 141 162 169 140 131 122 202 134 131 136 127 148 130 98
351 347 281 294 152 134 115 130 133 145 132 130 166 134 137 89 136 140 132 137 145 132 122 131 141 125 140 140 131 166 120 131 174 137 126 184 163 122 161 157 137 143 147
385 355 367 341 137 153 413 145 128 135 121 182 146 139 148 147 128 147 126 153 135 109 130 132 134 123 129 147 190 125 134 152 138 129 128 141 136 140 142 141 141 181 150
144 380 308 137 162 174 240 486 155 489 457 169 146 141 141 129 135 131 126 141 130 144 135 127 126 122 127 150 142 143 136 133 127 147 132 105 129 134 115 192 123 99 112
365 415 358 345 322 341 466 490 472 135 412 236 206 197 166 150 123 125 114 142 138 124 124 146 147 121 129 152 129 128 133 134 137 127 147 127 168 162 124 174 131 142 174
328 311 324 147 226 272 171 354 418 308 275 239 144 127 141 125 145 138 125 113 141 147 174 138 138 137 170 135 139 138 137 130 162 134 124 132 134 148 208 118 145 148 133
303 310 338 345 161 183 145 135 144 371 205 142 137 143 145 147 128 135 158 138 134 142 143 138 137 138 143 160 157 132 135 160 136 132 131 130 129 133 167 166 206 206 237
273 159 291 158 159 133 131 132 328 137 136 134 137 139 134 133 135 159 183 120 132 142 138 139 135 154 262 142 141 146 133 135 133 134 134 134 140 128 188 145 184 209 155
157 193 289 225 160 307 267 145 230 230 214 139 147 149 217 148 151 147 148 337 198 144 146 210 144 143 143 144 215 181 223 172 190 196 199 200 206 178 136 178 155 214 155
288 313 288 283 253 160 157 153 151 150 208 211 193 153 288 149 148 149 147 148 148 148 296 235 212 234 186 265 258 214 240 236 230 228 216 215 219 194 202 198 218 247 237
273 278 287 307 269 264 299 311 269 167 309 154 153 150 150 148 149 149 294 145 299 307 317 302 303 286 297 304 301 298 286 289 278 255 280 246 158 252 264 251 249 247 234
247 138 247 248 254 296 263 256 278 292 302 309 270 316 288 289 315 312 308 306 304 307 303 292 291 286 292 289 281 277 279 272 256 245 278 282 269 278 249 248 242 237 233
172 160 140 244 265 151 123 186 283 253 251 268 284 285 267 282 271 300 232 222 262 251 288 293 291 293 290 289 225 218 287 288 274 273 256 254 251 275 258 250 232 250 238
170 109 265 157 110 183 169 263 229 176 178 272 158 252 261 277 198 268 268 277 277 267 164 234 274 276 208 276 229 278 275 272 263 284 263 261 262 253 251 258 240 233 244
117 151 182 109 98 157 143 266 266 269 143 273 268 272 276 150 260 201 235 243 188 155 128 261 259 256 264 262 260 266 265 271 265 264 257 249 254 253 242 172 226 241 249
196 215 217 223 230 199 188 183 179 165 156 144 162 186 174 166 229 266 267 273 225 263 140 172 150 263 151 150 250 150 246 142 154 214 253 259 250 236 197 209 239 239 209
238 240 242 244 236 204 212 224 223 222 223 207 198 189 169 159 165 163 150 156 146 154 161 126 139 200 155 132 199 239 239 226 220 242 245 246 250 251 118 147 195 246 159
236 235 236 238 237 241 241 242 240 230 207 207 213 216 220 221 222 222 211 212 222 180 139 200 199 195 211 228 220 216 209 211 217 204 204 156 177 217 224 151 221 242 214
224 229 233 236 234 228 228 230 237 239 240 240 239 236 233 232 237 232 226 225 218 211 218 223 231 227 222 221 233 231 209 217 190 173 195 199 222 184 190 210 248 227 210
235 224 220 215 217 168 227 168 226 226 227 227 228 232 231 229 228 227 226 224 224 224 227 234 225 235 229 221 214 207 180 250 207 195 178 155 158 169 158 166 162 185 243
175 244 239 233 202 194 186 184 223 227 229 235 235 233 231 220 222 227 234 235 236 233 244 237 241 243 206 200 223 202 190 198 161 190 185 168 192 163 217 223 229 235 236
135 278 256 259 250 240 127 231 229 214 183 220 197 227 180 230 230 217 216 232 236 232 233 175 188 198 175 216 233 212 206 174 268 263 209 167 271 274 279 285 285 279 226
298 318 175 126 261 249 243 258 252 249 247 244 240 208 228 170 165 230 228 239 244 234 253 249 168 245 260 258 257 267 271 279 280 279 277 277 278 283 295 295 294 265 291
250 266 376 348 322 302 288 279 270 266 262 256 252 252 250 248 248 245 243 249 253 255 253 255 204 261 264 265 274 288 279 280 284 280 279 289 293 303 291 285 282 293 306
256 279 269 343 351 362 372 349 317 297 283 275 270 268 268 264 260 258 255 241 245 262 269 276 284 288 288 282 293 285 278 278 287 293 300 310 289 295 310 328 465 519 512

GFSMW_2pvu_pres_111.txt.gz
Presure
259 111 208 275 276 133 280 141 140 127 138 137 139 156 142 125 136 158 163 134 146 147 165 145 149 154 137 134 153 133 143 126 181 136 141 160 116 140 131 163 128 126 163
267 266 124 125 103 242 262 417 127 137 135 99 121 135 154 126 126 139 143 139 146 133 169 140 145 149 150 154 136 135 193 160 117 139 127 160 124 130 136 121 131 145 170
261 273 294 249 237 258 140 137 427 146 131 129 137 133 132 122 126 123 146 142 132 125 178 131 147 140 116 144 141 110 119 145 140 115 150 143 138 177 138 128 152 134 144
296 323 372 381 418 238 354 417 129 257 158 143 125 133 136 145 182 130 153 147 128 139 127 143 158 125 140 137 135 144 130 148 115 136 144 142 174 141 126 161 131 129 136
356 379 392 340 304 118 333 416 479 404 410 175 161 145 147 144 141 141 142 134 131 143 134 127 138 135 140 143 126 123 144 133 133 150 141 153 151 154 135 131 144 163 140
241 327 316 323 351 357 351 350 449 250 137 150 433 148 167 146 143 149 140 126 149 120 125 116 134 127 145 130 113 135 122 126 182 125 132 134 154 135 147 135 155 129 146
81 237 274 265 144 204 307 346 449 483 268 305 448 161 183 161 186 259 215 138 141 129 134 129 126 128 129 143 130 148 197 151 133 125 133 129 148 136 134 126 159 142 137
314 275 304 335 355 361 357 360 421 379 190 349 351 275 337 321 293 199 171 270 149 160 141 119 135 127 143 220 144 143 125 128 128 133 135 139 138 138 133 168 146 173 136
145 146 259 276 336 355 360 357 328 357 343 163 156 155 298 298 147 129 131 137 129 140 125 123 141 135 135 134 130 138 133 139 138 136 157 195 143 142 204 147 173 151 136
152 208 157 222 280 318 173 276 279 264 231 347 145 145 135 209 211 133 132 133 136 133 136 136 127 128 135 131 131 128 140 137 182 182 147 144 141 136 135 138 184 204 182
276 281 284 296 271 237 207 322 152 152 341 350 169 170 148 249 140 140 138 135 134 149 160 160 144 146 147 149 211 147 144 146 146 141 143 203 251 244 232 233 217 207 189
272 142 271 283 290 274 265 274 295 314 153 150 214 326 319 150 149 324 335 324 154 159 162 145 144 151 161 145 141 141 143 145 144 143 150 249 255 253 278 243 240 174 233
162 161 216 268 286 279 291 270 262 271 283 277 304 309 207 278 304 152 149 151 150 144 143 143 144 145 186 311 316 320 313 175 256 281 273 232 232 233 268 215 188 262 260
116 119 168 119 132 138 130 280 287 275 260 262 194 196 271 264 275 290 302 238 297 296 292 289 287 279 290 291 295 293 293 167 178 213 272 212 283 210 267 221 163 288 275
118 152 167 112 142 104 124 111 139 132 100 100 96 134 123 261 269 279 263 268 270 270 261 267 282 288 287 286 285 290 275 286 291 289 282 283 288 282 266 278 271 270 262
245 244 242 240 235 203 188 214 127 136 130 120 222 272 270 267 251 250 248 242 252 242 236 257 266 266 266 263 270 124 128 267 271 278 269 268 276 276 270 258 252 249 262
240 240 242 244 241 243 241 239 238 226 216 221 181 174 177 181 241 147 224 239 173 227 131 134 269 185 138 239 251 173 134 251 251 259 249 260 231 141 258 135 172 151 153
246 238 233 234 238 242 241 246 247 247 244 243 243 227 217 217 216 192 196 168 170 166 168 221 265 182 160 209 145 192 160 201 138 147 159 149 155 161 217 241 240 228 248
266 262 256 252 250 243 228 225 227 229 235 238 239 239 242 245 244 235 218 210 215 221 222 220 216 214 216 163 161 162 201 182 152 228 234 237 237 241 243 243 247 186 248
250 288 286 149 269 261 181 250 247 241 236 230 227 188 233 237 237 232 229 230 236 236 238 239 238 224 221 221 215 220 208 217 228 224 223 223 227 226 224 222 248 203 169
265 205 204 249 273 237 135 283 198 123 251 242 202 240 235 228 231 235 233 236 236 237 238 240 237 232 234 235 234 235 232 233 225 227 229 229 234 240 226 176 234 173 180
143 178 152 135 240 267 218 331 248 297 269 280 262 253 250 245 240 239 235 230 229 233 236 234 230 230 231 238 228 225 231 228 225 227 195 190 188 222 215 213 186 217 195
258 191 276 276 227 234 272 258 252 319 394 317 299 298 289 278 264 258 179 251 247 201 238 235 232 237 240 242 234 232 227 231 191 220 228 184 234 216 218 227 228 241 231
246 253 237 213 202 231 272 272 290 346 320 331 309 362 387 302 300 288 287 281 274 265 261 162 169 249 180 247 250 253 255 260 264 264 263 159 268 274 278 189 283 284 296
248 243 245 251 258 251 243 250 260 313 347 327 324 328 326 329 335 371 335 304 296 288 283 278 280 274 275 274 277 278 278 263 279 285 296 301 305 308 307 307 318 310 306
226 255 238 248 223 253 234 240 246 261 345 333 313 365 392 390 393 392 369 361 365 361 339 323 306 296 298 299 303 304 310 310 314 330 335 335 331 330 329 332 330 329 326

GFSMW_2pvu_pres_114.txt.gz
Presure
156 248 248 248 217 262 161 254 97 268 125 137 125 145 157 173 143 138 134 158 157 147 161 154 162 159 134 149 146 162 134 142 152 144 184 138 133 150 140 151 133 122 131
241 233 246 186 256 286 268 264 127 299 266 267 158 149 161 134 128 141 136 141 161 124 160 151 161 164 137 147 159 141 138 134 138 144 141 136 127 206 168 131 120 128 154
259 274 276 295 325 242 399 118 385 322 263 135 333 435 106 133 135 114 116 139 130 118 119 114 160 147 177 154 164 175 152 146 145 141 142 148 124 176 128 119 124 118 165
277 291 324 350 330 345 345 351 353 119 299 342 362 185 92 433 135 138 127 130 106 150 151 149 128 135 192 143 132 138 122 145 154 148 202 141 129 125 140 144 122 122 115
283 318 330 331 322 343 325 371 372 393 397 504 481 222 421 500 476 442 149 136 140 140 164 164 122 130 123 125 140 125 133 126 153 150 139 132 132 132 125 137 140 146 154
304 292 286 315 94 139 354 375 386 455 486 509 408 415 154 426 232 249 119 148 159 155 140 135 154 135 136 119 136 134 123 118 136 139 137 140 136 132 147 124 169 151 136
286 287 299 319 264 238 380 378 395 372 397 405 397 429 254 390 376 137 230 227 191 126 141 131 136 125 121 144 125 127 125 143 139 140 126 148 135 124 126 125 166 128 131
288 285 284 290 299 278 317 374 392 329 371 324 338 363 367 355 339 303 311 286 159 152 161 133 221 133 149 134 141 134 133 144 128 140 121 136 141 149 126 168 129 133 135
269 274 285 285 290 289 258 327 329 328 320 306 337 330 358 338 318 312 295 141 208 180 163 189 180 273 142 154 145 150 154 157 128 134 137 124 140 121 149 154 133 129 129
235 238 259 270 268 178 159 162 190 214 340 239 333 300 294 324 316 136 135 134 133 134 231 269 144 135 157 183 142 143 141 133 133 137 134 129 136 133 129 130 142 140 167
215 239 209 213 230 257 285 292 272 238 157 310 322 281 157 306 305 318 204 228 268 163 133 136 149 140 132 130 132 132 132 125 121 121 141 150 233 152 144 148 148 139 136
191 191 197 216 234 233 224 231 287 285 267 288 293 172 333 326 154 147 163 187 213 304 156 154 277 185 142 138 139 141 140 142 146 155 157 144 144 145 136 135 136 142 144
179 201 132 132 131 131 181 147 222 227 252 278 195 270 297 293 296 189 160 188 294 332 188 148 152 151 155 158 153 151 151 156 186 262 170 155 145 167 167 239 228 247 243
188 124 126 126 121 118 187 134 162 123 118 121 129 119 205 118 116 111 211 293 291 205 217 264 222 160 155 231 229 224 152 237 153 156 231 298 245 226 304 302 302 232 262
138 132 239 237 212 240 244 247 241 242 245 246 204 160 135 130 232 109 218 181 149 265 285 284 281 284 290 289 285 280 276 277 280 177 173 199 196 287 292 215 279 270 276
274 271 269 265 261 257 247 232 229 233 238 244 244 245 243 168 188 146 221 271 266 263 256 260 250 263 279 278 269 284 292 289 182 277 280 278 278 277 283 131 277 256 258
241 237 228 248 275 279 275 269 263 259 250 232 228 217 240 241 245 244 231 188 207 216 240 266 265 266 256 260 254 171 257 265 265 263 255 261 270 270 170 272 278 269 177
247 254 238 203 252 246 252 259 256 264 277 269 262 258 250 239 234 239 241 244 237 226 223 201 186 193 196 251 256 260 264 266 252 248 241 249 253 257 255 258 262 208 154
244 235 252 248 244 259 259 251 254 183 283 299 278 288 276 265 262 254 161 222 240 243 245 247 243 227 225 223 225 225 216 212 209 171 172 166 168 169 165 162 162 161 237
236 219 242 242 236 240 263 261 225 263 272 272 146 281 162 137 291 277 149 144 260 252 247 240 245 242 243 242 242 234 243 228 226 228 224 232 233 232 233 232 220 215 218
173 231 234 210 248 242 242 172 135 250 224 213 162 226 187 211 293 320 301 292 279 270 264 264 256 251 245 244 246 244 247 246 243 241 240 245 234 233 229 223 225 225 248
218 235 202 236 225 256 240 199 207 259 212 201 232 239 242 252 239 344 329 329 326 299 248 169 209 271 264 260 252 248 242 240 240 234 235 237 240 241 244 242 240 238 239
220 221 232 237 127 131 235 252 252 237 251 249 250 246 281 247 281 331 331 334 322 328 320 338 301 296 288 281 273 265 248 248 243 169 225 173 233 238 241 243 192 238 237
188 220 219 217 227 235 248 222 232 251 253 227 246 258 287 271 329 348 412 412 412 325 317 333 339 322 378 355 300 292 286 277 273 269 265 261 258 256 252 250 248 249 247
218 189 217 226 236 259 212 242 259 235 251 249 248 275 276 332 436 418 409 396 387 387 395 402 387 382 352 372 345 361 356 356 321 300 294 294 294 294 294 294 293 292 294
191 226 224 212 212 248 230 252 265 266 243 260 245 275 342 457 422 401 407 400 386 366 366 387 366 350 348 347 353 367 365 350 353 365 356 345 352 348 346 345 346 345 345

GFSMW_2pvu_pres_117.txt.gz
Presure
231 222 238 143 137 251 252 250 250 253 93 113 266 217 107 249 142 147 139 143 143 141 151 125 157 137 136 133 124 169 143 162 148 166 160 185 155 129 150 134 128 136 119
235 243 247 232 187 233 227 238 243 176 217 379 262 285 409 394 259 156 142 135 141 136 137 140 142 153 154 158 144 151 189 158 148 142 157 155 159 168 147 147 142 151 128
230 234 232 265 296 294 298 345 360 343 347 247 392 392 361 126 182 404 410 128 90 137 131 139 132 116 147 133 128 117 146 163 160 161 126 132 147 140 148 160 138 117 185
285 286 293 298 283 329 307 343 323 321 391 394 399 273 123 398 191 117 136 345 162 116 133 113 133 138 154 114 154 132 156 138 175 135 172 167 132 150 172 138 136 215 127
279 269 299 308 312 315 318 304 291 295 396 354 415 439 507 437 139 443 172 407 448 116 176 465 121 138 132 151 138 139 118 124 198 125 139 136 136 137 120 136 155 119 153
315 307 307 307 304 300 301 302 284 344 257 355 339 373 385 384 417 437 263 491 451 452 384 253 382 192 137 134 231 208 141 152 137 153 153 141 128 149 123 129 145 144 183
303 305 293 301 302 291 230 87 300 313 350 252 362 328 310 363 371 397 432 399 411 424 132 323 182 142 250 143 169 132 151 138 132 160 141 143 120 131 141 132 131 113 141
286 254 270 246 248 251 259 267 311 304 317 339 347 339 308 353 364 282 334 353 351 314 150 311 291 145 132 162 151 136 133 147 239 148 261 152 217 251 126 141 139 145 128
233 238 236 229 235 245 237 244 254 267 299 287 324 324 309 343 305 314 317 322 316 305 293 298 284 266 250 138 199 162 123 124 136 140 157 139 141 142 270 134 134 128 144
229 220 219 226 221 257 225 196 202 210 172 159 156 161 275 302 318 296 312 265 279 301 234 288 261 135 272 265 189 134 208 162 191 141 150 192 156 153 180 150 124 120 118
181 236 245 212 247 250 196 202 221 240 238 242 253 264 282 330 221 260 314 274 301 277 243 148 294 283 141 139 137 136 142 294 138 133 131 128 130 197 133 132 130 129 131
262 262 263 154 264 262 181 177 137 134 163 253 227 241 253 262 277 269 318 319 274 298 260 243 296 272 276 251 159 266 279 235 281 272 283 135 136 149 133 127 141 143 272
269 267 148 125 126 130 131 129 125 124 125 253 206 158 131 127 252 253 124 127 276 206 250 176 267 142 261 252 264 257 258 165 192 356 358 309 341 305 128 142 258 152 135
242 193 131 124 119 121 120 242 247 261 270 268 265 256 220 213 184 120 237 122 188 133 195 111 110 122 204 298 304 301 284 197 235 324 151 195 145 143 142 143 142 152 144
129 168 224 255 221 241 252 260 256 262 250 275 254 268 273 267 253 180 196 253 250 218 214 147 272 263 259 265 291 289 296 298 288 288 291 288 181 152 152 152 152 166 203
234 242 239 247 247 249 244 250 275 269 255 248 176 280 243 283 252 276 267 263 255 184 192 246 241 242 253 265 269 258 256 258 282 282 291 289 283 287 287 235 203 194 294
222 222 237 225 230 231 219 247 245 251 253 286 282 276 251 177 211 301 290 261 263 267 264 261 253 202 229 196 238 249 262 266 265 265 248 272 279 286 289 281 278 276 277
195 221 224 237 232 223 234 232 259 196 198 201 256 263 250 228 245 221 257 263 296 295 277 263 259 206 260 254 252 249 237 200 233 246 257 263 267 267 268 267 275 278 279
146 147 183 211 229 223 221 161 154 190 241 258 222 252 293 246 238 141 154 244 203 157 267 274 267 261 269 264 260 257 253 250 249 244 239 235 233 222 261 267 197 183 184
200 221 209 199 199 228 231 240 229 229 239 234 228 252 246 162 259 265 246 262 291 293 256 251 243 326 305 289 269 267 255 260 252 251 249 240 241 241 242 238 256 257 254
193 201 182 219 229 222 220 233 231 245 241 208 221 282 226 252 299 236 298 286 279 356 353 339 338 344 337 337 312 296 274 272 263 254 252 256 251 249 250 243 241 244 242
191 217 208 198 197 190 231 221 220 236 258 237 269 262 252 253 263 257 261 283 473 444 426 422 427 422 329 335 337 334 332 309 289 278 272 268 261 259 254 235 223 211 176
204 202 189 215 228 192 221 239 237 217 249 225 266 258 247 251 258 255 261 351 409 436 424 422 416 407 402 403 396 311 326 329 336 343 317 292 279 277 274 267 264 261 256
188 199 202 212 210 221 225 225 236 228 239 253 258 258 253 245 251 264 267 291 375 360 358 363 367 364 368 379 394 400 392 380 386 338 312 324 335 333 310 296 288 283 278
200 204 207 212 209 227 201 227 162 237 239 239 256 260 247 239 252 279 256 293 332 341 331 329 326 325 328 335 359 362 344 340 342 346 353 357 364 371 323 339 335 337 343
206 184 209 217 200 220 230 226 242 232 243 240 250 266 239 248 251 263 256 291 314 335 325 313 305 303 297 295 296 295 297 299 300 305 311 313 318 326 332 337 344 353 361

GFSMW_2pvu_pres_120.txt.gz
Presure
234 234 234 234 233 232 242 238 254 248 247 98 174 252 143 239 162 191 157 144 143 149 146 229 158 144 155 138 136 141 165 160 151 161 160 167 170 188 181 171 158 189 163
222 249 233 223 253 253 244 246 242 265 167 84 301 355 359 354 352 151 358 372 273 136 218 82 141 126 137 136 135 152 157 139 153 134 121 158 150 156 171 153 133 161 125
230 238 239 276 278 317 308 297 296 334 342 325 318 90 317 313 365 443 491 553 361 412 265 387 134 132 99 127 135 139 143 142 142 135 141 115 155 122 190 134 155 141 129
284 275 278 286 277 270 305 134 290 313 322 305 295 372 379 352 364 386 418 455 492 449 402 144 363 145 322 295 136 141 122 126 143 143 140 152 139 122 155 145 128 139 144
271 260 264 294 334 316 295 276 275 278 290 302 302 304 353 331 354 380 381 422 452 475 116 122 127 350 152 152 134 133 117 127 131 126 124 133 131 122 120 153 172 128 132
279 348 341 306 292 267 259 265 256 258 264 276 295 300 298 334 339 344 362 365 408 476 448 444 484 393 377 372 400 357 294 278 133 133 236 142 149 109 143 138 154 141 147
325 308 274 265 255 253 249 251 242 236 245 257 269 280 302 282 336 318 300 360 350 373 406 418 433 456 462 338 147 295 199 150 210 123 126 198 160 152 137 134 130 129 126
272 262 233 246 254 235 253 227 227 225 235 228 250 268 276 294 269 316 297 296 337 324 328 368 400 403 433 460 328 252 160 154 148 265 129 151 142 136 320 169 176 154 187
223 223 218 223 228 207 212 213 214 261 264 260 267 244 250 251 213 160 302 290 267 280 314 324 329 300 305 302 312 297 161 253 257 173 249 181 145 144 133 136 131 130 131
201 248 273 273 227 278 277 275 240 250 267 271 266 257 253 246 260 265 277 255 219 208 286 272 303 296 288 279 274 267 253 275 158 267 261 141 192 204 149 179 223 160 136
173 258 259 191 175 229 264 263 262 272 208 182 139 140 138 176 158 185 189 270 281 278 269 285 189 274 252 287 177 250 267 191 261 134 274 265 176 186 140 140 179 151 154
253 252 151 142 143 151 252 135 138 130 130 128 280 187 136 279 132 134 248 256 139 153 299 275 294 256 269 258 283 265 271 265 267 267 259 202 136 133 131 210 169 149 229
135 132 132 131 140 240 135 130 128 137 128 241 235 269 255 125 129 266 271 150 239 263 249 123 140 277 230 260 259 262 280 185 152 125 253 248 260 172 234 158 260 255 250
185 227 235 180 217 128 237 233 238 253 257 255 253 249 263 273 278 264 284 294 283 275 156 118 187 125 203 126 125 193 190 160 107 108 191 251 257 253 262 206 307 299 245
202 202 199 197 209 236 230 234 241 239 227 240 251 254 253 249 252 247 254 252 250 275 298 283 252 221 260 231 217 230 258 255 311 276 279 303 308 320 310 297 303 305 321
181 197 208 221 225 145 144 146 144 145 145 231 241 240 259 138 136 255 251 268 252 249 247 251 265 303 278 273 265 201 262 258 262 276 270 255 268 284 281 285 298 294 302
140 192 192 205 203 179 181 198 234 225 214 204 240 242 171 271 251 257 264 277 251 255 266 230 252 253 253 254 287 271 275 271 265 231 228 253 269 275 276 257 273 289 292
193 211 212 212 214 213 203 210 227 198 238 240 220 222 252 234 265 262 252 251 241 287 281 252 238 202 274 291 290 256 257 280 224 198 271 264 264 259 253 248 258 270 262
194 204 190 190 212 204 212 215 211 229 225 223 236 244 227 253 263 266 151 214 254 253 271 262 261 435 455 418 367 357 354 272 150 143 281 268 272 263 264 258 253 249 236
181 184 185 204 203 202 185 211 212 218 217 229 234 203 247 231 257 262 263 264 247 258 282 261 288 385 408 454 460 451 354 348 351 278 308 281 278 266 274 264 262 257 253
188 194 194 211 186 206 197 211 205 209 230 201 233 241 181 253 239 253 268 261 252 266 261 284 284 347 364 373 384 410 420 434 402 333 348 326 330 300 284 273 270 265 254
189 185 205 197 211 208 216 211 203 226 218 236 216 235 251 236 240 252 241 270 264 253 262 293 313 321 342 335 336 339 348 370 397 402 407 379 333 339 344 330 292 278 262
191 202 206 195 214 181 184 191 211 209 230 241 242 221 248 242 239 253 244 268 262 253 262 298 299 326 350 335 323 314 316 320 320 322 327 358 391 399 400 305 314 341 336
213 224 225 219 225 205 216 188 221 198 237 236 245 237 220 252 247 236 261 244 266 250 263 295 281 320 306 341 323 309 306 303 301 303 311 312 311 308 312 327 325 342 363
209 176 201 241 230 217 219 238 233 201 235 230 245 230 233 250 255 233 266 239 268 279 255 292 288 278 307 359 326 312 296 295 293 294 295 295 300 303 307 314 319 325 333
210 225 225 231 232 215 244 170 236 250 249 227 248 243 228 250 270 261 251 232 261 286 250 292 293 276 303 355 338 315 303 296 294 293 289 282 280 305 385 448 572 554 478

GFSMW_2pvu_pres_123.txt.gz
Presure
209 225 230 204 206 219 216 232 216 240 233 224 232 239 289 345 347 280 328 351 354 363 390 366 171 123 181 143 146 148 180 140 143 145 134 132 136 131 153 154 134 186 168
213 221 215 216 221 234 232 237 253 276 280 281 276 309 281 316 308 369 384 371 387 407 433 219 377 174 164 284 95 179 257 183 139 129 132 139 133 129 132 145 133 145 146
249 246 266 239 214 260 270 263 258 255 283 302 284 283 300 306 312 361 211 364 361 366 396 443 351 500 377 111 301 311 231 142 137 143 142 142 142 138 143 134 139 150 118
280 273 269 262 255 256 259 265 277 305 287 277 276 266 277 284 309 226 339 319 333 348 385 411 495 151 360 426 354 354 359 139 227 101 140 146 145 143 142 142 135 141 123
238 241 244 258 267 277 324 309 294 279 269 266 264 239 250 232 242 308 306 334 323 309 349 359 435 432 513 438 396 384 341 349 229 302 263 263 117 150 214 190 124 130 157
252 259 272 342 329 307 293 283 277 268 255 237 243 229 243 273 234 245 298 286 309 297 300 337 361 398 443 445 403 205 205 103 275 269 133 220 163 131 164 129 234 125 127
368 343 319 310 293 276 241 223 223 248 220 243 274 256 274 262 274 257 243 270 283 320 299 303 344 345 361 432 431 381 370 354 330 369 333 322 279 135 249 117 130 257 168
278 235 223 222 215 215 265 275 281 213 259 266 267 279 273 287 292 287 267 227 265 271 313 280 310 310 316 274 469 470 371 369 363 391 274 283 286 303 173 210 138 149 174
272 240 258 255 255 255 257 259 261 259 265 277 290 291 293 197 182 181 196 269 226 156 278 175 288 156 264 316 346 492 372 295 307 300 305 292 278 278 259 202 140 137 157
260 252 248 248 249 248 247 247 165 202 262 262 216 264 271 282 275 276 264 233 256 211 223 262 308 293 288 199 247 317 291 305 293 273 276 257 258 194 166 191 142 265 166
234 235 241 240 238 241 239 175 166 177 201 245 249 219 266 268 185 179 135 283 291 308 286 235 256 151 198 270 286 275 160 226 249 266 250 265 252 259 254 136 263 134 177
215 218 140 139 209 137 138 239 141 141 212 141 133 137 127 128 130 127 127 135 131 133 127 141 141 216 267 263 267 268 259 253 286 268 160 257 249 251 252 255 251 143 250
207 185 139 136 193 168 200 212 211 237 228 216 245 248 242 150 150 256 263 264 234 246 154 269 246 251 158 124 261 283 272 256 284 289 260 267 265 265 249 156 247 260 262
169 163 204 193 205 204 214 194 160 207 205 236 220 225 242 247 229 193 247 259 266 270 268 257 253 260 257 245 260 192 193 202 202 128 132 133 206 252 207 207 240 221 227
207 203 211 214 215 219 216 208 199 222 216 197 223 225 239 237 248 244 231 246 269 207 179 258 243 251 256 279 277 266 242 258 278 229 229 112 111 237 218 179 118 136 263
179 183 189 188 196 201 199 200 220 201 200 195 219 236 240 220 240 247 237 253 242 261 276 257 267 254 129 244 253 278 273 251 267 252 261 281 303 260 265 260 275 266 268
200 204 206 201 194 183 190 209 221 205 218 209 212 218 245 237 220 236 252 240 258 246 257 277 280 261 285 260 277 262 259 245 270 290 298 319 268 271 279 293 266 252 290
179 195 191 189 198 203 210 226 218 215 214 212 213 220 212 247 235 245 233 253 247 248 256 262 272 292 272 268 319 273 264 370 412 331 142 232 229 295 296 271 279 199 222
196 204 181 188 211 213 185 190 213 225 228 214 194 244 242 240 235 251 242 231 260 238 239 265 263 267 297 256 315 314 336 354 340 347 416 459 454 354 313 130 259 141 248
185 194 201 203 204 202 206 208 204 217 243 189 223 193 237 241 245 238 255 229 236 251 259 239 273 251 299 277 302 308 297 341 344 337 340 352 385 432 454 343 351 280 268
200 215 211 204 220 189 211 203 223 234 235 243 201 240 230 255 245 230 242 253 235 264 282 241 267 266 276 288 289 305 292 330 353 332 324 317 317 329 342 403 438 371 343
206 206 201 170 202 203 204 204 234 240 238 237 233 239 242 245 254 247 239 247 249 259 281 256 250 214 261 276 301 307 289 319 373 337 321 310 306 303 307 314 321 329 355
211 202 205 207 196 200 201 220 219 240 239 224 233 236 245 242 237 249 255 242 251 255 251 256 247 277 256 288 272 278 281 337 369 353 324 313 302 300 296 296 305 306 312
198 230 254 246 205 251 217 252 227 240 235 248 217 235 226 254 246 241 243 243 240 257 249 287 270 279 258 285 291 299 273 307 360 339 334 313 305 302 297 296 298 302 300
220 211 217 237 236 212 245 225 226 239 242 236 235 238 239 265 247 260 257 242 238 248 257 265 265 276 260 281 303 299 279 296 355 330 313 306 301 299 298 295 292 292 294
222 216 236 232 229 223 196 213 238 233 242 232 223 211 234 268 248 251 261 257 237 242 257 260 276 278 260 269 272 291 281 315 339 320 305 294 290 280 277 333 384 378 372

GFSMW_2pvu_pres_126.txt.gz
Presure
200 195 200 204 212 228 236 270 145 260 257 252 250 251 245 285 281 268 273 295 310 312 373 337 352 323 151 128 460 420 140 330 134 172 257 158 119 149 132 138 143 141 155
215 227 229 232 240 212 230 240 242 283 280 268 269 268 267 279 307 295 290 279 269 261 261 254 313 326 330 358 257 223 353 379 346 316 142 169 143 141 190 152 146 129 144
229 218 216 211 214 225 272 263 260 257 259 267 287 327 314 295 284 277 265 256 249 245 242 242 240 327 326 329 407 516 465 435 403 97 248 180 184 142 237 217 137 140 139
274 276 286 260 260 245 244 259 266 288 337 322 313 295 280 269 255 159 240 234 222 272 265 96 260 331 310 327 385 439 447 474 434 344 365 312 303 257 245 153 142 209 146
250 241 242 241 256 268 282 351 342 312 265 249 242 237 239 233 294 297 298 304 302 301 281 268 275 307 322 327 353 393 432 506 456 358 337 241 291 286 280 266 139 125 141
254 261 279 328 372 345 308 254 242 248 263 273 278 282 280 269 281 261 264 274 305 292 302 287 273 231 321 306 307 346 432 412 410 383 334 343 344 123 292 256 180 185 224
421 364 297 254 247 273 280 277 268 258 255 256 257 260 261 265 270 279 285 291 292 264 260 289 292 277 279 314 303 322 346 441 402 395 355 333 319 348 334 293 275 274 278
285 283 269 267 264 256 253 249 245 242 243 247 250 251 251 255 262 277 294 268 273 275 277 270 275 270 284 283 303 293 333 423 452 396 381 374 365 361 318 316 352 275 276
249 248 243 241 239 237 237 240 242 243 246 242 245 243 257 261 256 203 256 273 292 268 266 272 262 260 268 282 266 293 168 279 339 388 364 349 342 352 358 333 349 293 275
221 217 220 220 220 220 219 223 224 226 194 228 180 203 251 247 244 208 259 255 257 267 291 298 290 284 279 256 268 286 250 305 306 330 316 335 328 346 322 308 296 277 257
204 206 209 220 162 208 206 164 219 180 134 136 154 219 224 215 219 207 252 260 257 219 134 134 133 184 180 264 267 261 231 271 276 285 274 297 257 290 281 290 294 284 274
200 200 200 201 203 204 132 135 221 214 211 196 203 165 138 221 141 252 240 236 241 248 255 136 142 269 269 128 126 128 128 134 135 128 142 269 291 255 263 226 273 276 282
189 195 218 217 194 191 193 198 215 208 208 236 223 218 151 209 215 216 247 174 246 242 251 255 262 257 265 286 251 244 257 264 277 269 247 124 246 290 267 263 273 185 250
162 192 192 193 194 168 173 212 201 190 199 187 207 229 249 230 225 237 230 245 240 253 239 246 258 258 252 272 290 283 257 241 262 255 295 271 258 200 122 208 257 277 265
182 195 210 196 195 188 191 209 210 213 195 211 214 225 234 247 245 198 233 255 247 236 252 246 231 237 264 247 268 266 285 278 271 254 259 281 270 294 255 259 227 246 159
189 206 189 197 181 196 192 215 199 224 201 190 197 214 229 234 236 226 248 238 259 254 238 249 247 231 243 276 243 275 261 285 303 256 275 354 406 267 300 279 261 258 264
190 177 180 199 202 191 214 207 204 205 211 212 215 216 235 234 232 239 224 252 244 255 258 245 252 243 254 289 282 248 275 280 308 261 329 310 336 337 380 398 300 306 272
194 176 213 199 195 227 172 211 201 220 199 206 237 221 229 241 241 233 237 233 259 248 254 254 247 251 254 269 292 256 263 281 290 191 335 295 301 402 326 299 251 426 308
211 211 210 216 215 210 221 223 250 242 214 227 226 206 244 229 237 228 238 235 238 250 249 260 256 251 244 271 268 283 259 286 272 278 317 317 294 335 385 345 342 350 143
217 196 198 210 211 205 216 221 212 218 238 195 228 238 215 218 233 254 245 238 227 251 250 254 263 260 240 252 264 278 287 290 274 294 280 318 318 315 391 352 331 328 326
205 203 201 202 208 227 218 207 218 207 196 215 228 227 215 217 229 230 241 240 239 233 258 250 253 262 241 244 265 268 293 293 277 297 275 305 317 309 371 366 334 321 312
200 190 199 203 203 228 212 212 204 191 197 223 232 217 214 240 242 231 237 246 238 216 264 252 250 253 271 245 259 253 273 292 275 296 293 285 312 378 360 346 349 326 316
208 192 217 201 219 221 223 211 211 226 242 223 232 237 249 213 243 247 238 251 237 227 260 256 247 262 270 263 263 255 270 288 274 291 314 275 294 364 342 329 322 327 322
212 196 199 211 221 223 216 208 216 211 233 245 249 249 255 264 257 254 240 238 248 226 259 259 247 265 255 281 272 270 272 286 277 285 309 290 288 357 325 311 306 302 299
219 220 211 216 225 229 211 217 227 239 234 246 260 250 265 290 268 245 261 275 243 269 260 262 235 269 251 268 273 271 272 286 280 277 298 294 361 338 310 298 291 290 351
228 222 222 226 231 234 231 227 232 245 245 237 251 259 313 290 279 287 252 275 239 262 263 257 244 273 249 264 242 276 269 286 284 256 264 282 372 313 294 287 387 433 425

GFSMW_2pvu_pres_129.txt.gz
Presure
217 218 227 231 220 221 226 233 233 240 246 202 216 224 256 251 240 260 288 319 323 305 295 284 288 283 266 258 250 253 279 239 303 334 419 407 433 310 259 262 170 173 180
241 238 240 251 201 204 235 240 243 243 240 256 249 244 251 361 351 339 309 293 275 269 263 252 251 263 261 147 277 244 280 262 321 354 476 569 475 419 318 274 254 244 123
222 207 203 311 302 295 289 275 258 245 238 257 340 345 300 277 267 269 268 253 277 275 303 299 297 307 326 314 298 273 288 314 310 355 451 499 194 291 392 313 281 203 203
199 228 206 215 231 233 231 230 258 363 362 305 277 282 286 281 282 286 274 278 284 288 291 292 295 292 265 307 318 301 297 309 315 356 443 420 389 394 380 354 300 286 268
201 247 236 237 259 286 424 387 303 275 244 284 264 264 263 264 265 264 263 263 264 265 267 268 272 279 286 284 279 279 304 285 309 347 438 409 371 358 353 376 350 295 279
271 287 432 440 390 282 282 295 269 260 255 254 255 254 254 255 255 253 252 250 249 255 275 288 318 266 267 264 306 292 289 293 318 318 431 404 370 339 335 344 351 311 176
351 272 277 276 263 252 249 243 241 240 237 238 238 224 239 243 244 241 243 249 255 263 264 261 265 278 294 299 305 305 309 285 292 311 351 420 374 345 355 340 324 333 334
255 245 241 235 235 235 221 212 220 225 227 226 223 223 224 223 224 220 215 260 259 218 251 256 271 264 269 273 288 290 308 275 276 291 311 376 410 390 344 332 310 290 311
216 225 217 212 211 221 223 215 214 216 224 226 225 225 216 147 226 223 226 228 240 252 261 253 242 253 263 270 270 281 287 278 271 295 286 298 295 383 364 351 322 326 321
197 198 201 213 219 208 199 200 206 209 217 218 161 223 224 223 194 254 233 230 198 236 238 182 183 253 176 237 212 256 226 309 281 275 266 281 286 308 330 353 347 356 346
215 202 199 203 208 218 214 199 192 197 198 210 134 183 169 136 207 226 225 249 252 226 245 264 257 136 135 132 129 179 256 130 134 140 131 131 166 282 197 283 327 327 311
189 218 191 220 194 194 195 199 218 197 212 219 194 210 217 218 217 213 238 242 240 249 206 214 253 265 255 254 239 235 256 278 257 270 285 271 261 125 124 126 124 126 318
189 188 200 197 198 189 215 191 199 193 197 215 214 221 220 198 235 233 230 240 246 240 229 241 244 259 264 265 256 243 242 268 294 167 284 275 271 276 265 280 278 272 273
176 182 194 212 190 192 186 202 210 221 234 204 260 254 233 208 228 230 236 244 225 239 245 241 239 241 259 263 266 254 259 263 273 298 257 287 209 320 297 260 298 284 275
190 183 185 211 181 176 191 189 219 202 202 231 184 210 227 247 213 235 247 226 229 240 239 240 235 240 246 258 262 267 262 252 268 283 160 261 293 282 304 266 317 341 286
200 170 182 182 219 181 209 217 213 212 216 227 223 225 216 235 244 236 238 238 228 227 232 243 254 242 238 237 261 261 267 261 251 266 277 274 291 285 295 253 350 296 358
198 199 209 211 213 220 192 206 212 212 228 229 201 214 221 223 202 212 218 244 214 233 249 232 237 243 251 230 239 257 256 265 255 252 264 282 296 307 280 315 313 332 294
203 203 212 191 222 203 211 209 221 219 213 228 225 224 218 211 204 235 234 229 217 240 233 257 231 237 213 246 231 262 258 254 263 252 268 268 287 305 290 315 277 337 286
184 199 199 201 224 226 209 231 185 216 214 219 227 225 215 211 222 226 235 223 247 252 244 258 253 246 240 278 226 257 258 255 263 265 254 271 278 289 298 287 301 293 318
203 197 194 224 220 225 229 220 223 219 214 217 227 230 225 212 217 236 244 236 249 251 253 259 276 280 242 251 254 240 273 253 260 272 268 264 280 288 292 298 269 286 310
193 207 206 193 220 222 224 220 224 215 207 209 225 226 233 233 230 234 236 247 249 242 247 267 277 268 243 241 246 265 264 255 257 268 261 252 280 284 295 288 275 278 296
209 200 216 219 210 212 200 209 205 235 225 224 226 222 229 231 231 231 236 250 255 255 311 303 286 280 260 260 249 268 266 253 258 255 281 264 284 283 300 281 278 313 320
209 205 208 225 213 209 211 212 222 228 229 221 219 226 226 235 233 239 247 259 269 311 324 319 285 275 263 255 279 266 265 255 264 253 277 285 278 281 296 276 271 288 376
202 209 206 205 209 218 214 210 231 218 211 217 224 233 233 239 239 244 258 270 284 340 161 299 285 277 260 274 277 273 265 257 269 262 243 286 275 280 287 268 311 377 328
208 208 221 240 216 224 225 225 224 222 222 224 234 232 236 247 256 283 285 280 290 327 299 294 287 286 220 272 292 278 267 255 253 266 253 280 278 298 295 274 283 347 304
212 219 227 163 234 220 216 222 219 229 222 233 134 225 218 289 286 260 199 365 367 177 295 281 287 276 181 270 282 276 267 262 276 276 265 276 277 290 272 283 358 307 309